Home > Time Zones > World Clock > Weather > Japan > Naha > Past weeks

Flag for Japan Weather past 2 weeks in Naha, Okinawa, Japan

Now
82 °F

Passing clouds.


Feels Like: 91 °F
Forecast: 78 / 89 °F
Wind: 5 mph from Southeast

Location: Naha Airport

Current Time: Aug 21, 2014 at 8:14:28 AM

Latest Report: Aug 21, 2014 at 7:30 AM


Visibility: N/A

Pressure: 29.89 "Hg

Humidity: 84%

Dew point: 77 °F

Location of NahaLocation

Historic Weather in Naha — Graph

°F

Naha temperature yesterday

Maximum temperature yesterday: 88 °F (at 10:30 AM)
Minimum temperature yesterday: 81 °F (at 12:30 AM)
Average temperature yesterday: 84 °F

Past Weeks' High & Low Weather Summary

 TemperatureHumidityPressure
High91 °F (Aug 6, 2:30 PM)94% (Aug 8, 8:00 AM)29.95 "Hg (Aug 8, 8:00 AM)
Low75 °F (Aug 17, 11:00 AM)55% (Aug 6, 12:30 PM)29.33 "Hg (Aug 8, 3:30 AM)
Average84 °F82%29.69 "Hg
* Reported Aug 6 7:00 AM — Aug 21 7:00 AM, Naha, Weather by CustomWeather, © 2014

Note: Actual official high and low records may vary slightly from our data, if they occured in-between our weather recording intervals... More about our weather records

Advertising

Naha weather history for previous 24 hours

 ConditionsComfort  
Time TempWeatherWind HumidityBarometerVisibility
7:00 AM
Aug 21
82 °FPassing clouds.2 mph84%29.89 "HgN/A
6:30 AM81 °FPassing clouds.2 mph84%29.89 "HgN/A
5:30 AM81 °FPassing clouds.5 mph84%29.89 "HgN/A
5:00 AM81 °FPassing clouds.2 mph79%29.89 "HgN/A
4:30 AM81 °FPassing clouds.5 mph84%29.89 "HgN/A
4:00 AM81 °FPassing clouds.5 mph84%29.89 "HgN/A
3:30 AM82 °FRain showers. Passing clouds.3 mph79%29.89 "HgN/A
3:00 AM82 °FScattered showers. Passing clouds.3 mph79%29.89 "HgN/A
2:30 AM82 °FPassing clouds.5 mph79%29.89 "HgN/A
2:00 AM82 °FPassing clouds.6 mph79%29.89 "HgN/A
1:30 AM82 °FScattered showers. Passing clouds.5 mph79%29.92 "HgN/A
1:00 AM82 °FPassing clouds.3 mph79%29.92 "HgN/A
12:30 AM82 °FPassing clouds.3 mph79%29.92 "HgN/A
12:00 AM82 °FPassing clouds.3 mph79%29.92 "HgN/A
11:30 PM
Aug 20
82 °FPassing clouds.5 mph79%29.92 "HgN/A
11:00 PM82 °FPassing clouds.5 mph79%29.92 "HgN/A
10:30 PM82 °FPassing clouds.6 mph79%29.92 "HgN/A
10:00 PM82 °FPassing clouds.6 mph79%29.92 "HgN/A
9:30 PM82 °FPassing clouds.6 mph79%29.92 "HgN/A
9:00 PM84 °FPassing clouds.6 mph74%29.92 "HgN/A
8:30 PM84 °FPassing clouds.6 mph74%29.92 "HgN/A
8:00 PM84 °FPassing clouds.7 mph74%29.89 "HgN/A
7:30 PM84 °FPassing clouds.10 mph74%29.89 "HgN/A
7:00 PM84 °FScattered clouds.9 mph74%29.89 "HgN/A
6:30 PM86 °FPassing clouds.12 mph70%29.89 "HgN/A
6:00 PM86 °FScattered clouds.12 mph70%29.86 "HgN/A
5:30 PM86 °FScattered showers. Scattered clouds.13 mph70%29.86 "HgN/A
5:00 PM86 °FScattered showers. Scattered clouds.12 mph70%29.86 "HgN/A
4:30 PM88 °FScattered clouds.13 mph66%29.86 "HgN/A
4:00 PM88 °FBroken clouds.13 mph70%29.86 "HgN/A
3:30 PM88 °FScattered clouds.14 mph66%29.86 "HgN/A
3:00 PM88 °FBroken clouds.14 mph66%29.86 "HgN/A
2:30 PM88 °FBroken clouds.15 mph70%29.86 "HgN/A
2:00 PM86 °FBroken clouds.14 mph70%29.89 "HgN/A
1:30 PM88 °FBroken clouds.14 mph70%29.89 "HgN/A
1:00 PM88 °FBroken clouds.15 mph66%29.89 "HgN/A
12:30 PM88 °FPartly sunny.15 mph66%29.92 "HgN/A
12:00 PM88 °FPartly sunny.14 mph66%29.92 "HgN/A
11:30 AM88 °FBroken clouds.10 mph66%29.92 "HgN/A
11:00 AM88 °FBroken clouds.15 mph66%29.92 "HgN/A
10:30 AM88 °FScattered clouds.14 mph70%29.92 "HgN/A
10:00 AM86 °FScattered showers. Scattered clouds.13 mph70%29.95 "HgN/A
9:30 AM86 °FSprinkles. Scattered clouds.13 mph75%29.95 "HgN/A
9:00 AM86 °FScattered clouds.10 mph75%29.95 "HgN/A
8:30 AM86 °FScattered showers. Scattered clouds.10 mph75%29.92 "HgN/A
8:00 AM84 °FScattered showers. Scattered clouds.10 mph79%29.92 "HgN/A
Weather by CustomWeather, © 2014

See weather overviewHow to use our weather pages